Location: Molveno
(46.1500°N, 10.9667°E)
Time: 17:08:51
(UTC+00:00)

CARTOSAT-1 - Pass Details

Date: 05 July 2020
Orbit: 617 x 618 km, 97.8° (Epoch: 11 August)

Event Time Altitude Azimuth Distance (km) Brightness Sun altitude
Exits shadow 20:32:58 16° 151° (SSE) 1,628 5.1 -11.4°
Maximum altitude 20:36:21 63° 73° (ENE) 695 3.7 -11.7°
Drops below altitude 10° 20:40:38 10° 353° (N) 1,993 7.1 -12.2°
Sets 20:42:50 0° 350° (N) 2,904 8.2 -12.4°
